GW4387 Weather Reports


time (UTC)temp
C
wind
direction
speed
KPH
gust
KPH
rain 1hr
cm
rain 24hr
cm
rain mn
cm
humidity
%
barometer
mb
20260510193031 31 211 14.5 20.9 0.00 0.00 0.00 64 1016.2
20260510191534 31 213 4.8 17.7 0.00 0.00 0.00 61 1016.1
20260510190031 30 226 8.0 12.9 0.00 0.00 0.00 63 1016.0
20260510184523 30 207 11.3 17.7 0.00 0.03 0.00 60 1016.1
20260510183027 31 217 11.3 19.3 0.00 0.10 0.00 57 1016.0
20260510181527 32 352 12.9 30.6 0.00 0.10 0.00 55 1015.9
20260510180028 33 278 12.9 20.9 0.00 0.10 0.00 53 1015.7
20260510174526 32 298 9.7 19.3 0.00 0.10 0.00 58 1016.0
20260510173028 32 246 8.0 19.3 0.00 0.10 0.00 58 1016.0
20260510171538 32 292 6.4 19.3 0.00 0.10 0.00 57 1016.2
20260510170025 32 238 8.0 16.1 0.00 0.10 0.00 61 1016.4
20260510164528 31 39 1.6 6.4 0.00 0.10 0.00 65 1016.7
20260510163028 31 240 3.2 9.7 0.00 0.10 0.00 67 1016.9
20260510161521 31 302 3.2 14.5 0.00 0.10 0.00 65 1017.2
20260510160033 30 221 6.4 14.5 0.00 0.10 0.00 66 1017.2
20260510154512 30 236 6.4 17.7 0.00 0.10 0.00 66 1017.2
20260510153030 30 238 12.9 20.9 0.00 0.10 0.00 67 1017.0
20260510151527 30 301 6.4 16.1 0.00 0.10 0.00 69 1017.0
20260510150027 29 218 11.3 16.1 0.00 0.10 0.00 71 1017.1
20260510144514 29 217 14.5 19.3 0.00 0.10 0.00 71 1017.2
20260510143019 28 244 14.5 22.5 0.00 0.10 0.00 72 1017.0
20260510141525 27 229 12.9 17.7 0.00 0.10 0.00 76 1017.0
20260510140028 26 207 6.4 12.9 0.00 0.10 0.00 80 1016.8
20260510134516 26 193 8.0 14.5 0.00 0.10 0.00 81 1016.9
20260510133025 25 173 4.8 9.7 0.00 0.10 0.00 85 1016.7
20260510131528 25 180 4.8 9.7 0.00 0.10 0.00 87 1016.6
20260510130014 23 218 3.2 6.4 0.00 0.10 0.00 90 1016.7
20260510124518 23 246 3.2 6.4 0.00 0.10 0.00 93 1016.5
20260510123024 22 202 4.8 6.4 0.00 0.10 0.00 94 1016.4
20260510121527 22 215 6.4 9.7 0.00 0.10 0.00 1016.2
20260510120014 21 229 4.8 8.0 0.00 0.10 0.00 96 1016.1
20260510114525 21 220 3.2 4.8 0.00 0.10 0.00 96 1015.9
20260510113035 21 245 1.6 3.2 0.00 0.10 0.00 96 1015.5
20260510111526 20 223 0.0 3.2 0.00 0.10 0.00 96 1015.2
20260510110037 19 223 0.0 3.2 0.00 0.10 0.00 96 1014.9
20260510104525 20 223 0.0 3.2 0.00 0.10 0.00 96 1014.8
20260510103026 19 223 0.0 3.2 0.00 0.10 0.00 95 1014.7
20260510101514 20 230 1.6 3.2 0.00 0.10 0.00 95 1014.6
20260510100004 20 230 0.0 0.0 0.00 0.10 0.00 95 1014.3
20260510094504 20 230 0.0 0.0 0.00 0.10 0.00 95 1014.2
20260510093013 20 230 0.0 0.0 0.00 0.10 0.00 96 1014.1
20260510091519 20 230 0.0 3.2 0.00 0.10 0.00 96 1014.0
20260510090004 20 230 0.0 3.2 0.00 0.10 0.00 95 1013.9
20260510084506 20 230 0.0 3.2 0.00 0.10 0.00 94 1013.8
20260510083015 20 229 0.0 3.2 0.00 0.10 0.00 95 1013.4
20260510081529 20 229 0.0 3.2 0.00 0.10 0.00 95 1013.5
20260510080008 20 229 0.0 3.2 0.00 0.10 0.00 95 1013.5
20260510074509 20 230 0.0 3.2 0.00 0.10 0.00 94 1013.6
20260510073033 20 229 0.0 3.2 0.00 0.10 0.00 95 1013.7
20260510071523 20 229 0.0 3.2 0.00 0.10 0.00 95 1013.8
20260510070008 20 229 0.0 1.6 0.00 0.10 0.00 94 1014.0
20260510064515 20 230 1.6 3.2 0.00 0.10 0.00 94 1014.1
20260510063021 20 230 1.6 3.2 0.00 0.10 0.00 93 1014.4
20260510061504 21 230 0.0 3.2 0.00 0.10 0.00 94 1014.5
20260510060022 20 229 0.0 3.2 0.00 0.10 0.00 92 1014.9
20260510054519 21 229 0.0 3.2 0.00 0.10 0.00 92 1014.9
20260510053022 21 230 0.0 1.6 0.00 0.10 0.00 91 1014.9
20260510051508 21 230 0.0 0.0 0.00 0.10 0.00 91 1015.0
20260510050012 22 229 0.0 1.6 0.00 0.10 0.00 90 1015.1
20260510044524 22 229 0.0 3.2 0.00 0.10 0.00 90 1015.3
20260510043029 22 261 0.0 3.2 0.00 0.10 0.00 90 1015.6
20260510041510 22 115 0.0 3.2 0.00 0.10 0.00 89 1015.4
20260510040016 23 360 0.0 1.6 0.00 0.10 0.00 1015.6
20260510034522 23 17 0.0 3.2 0.00 0.10 0.10 88 1015.4
20260510033032 23 94 0.0 3.2 0.00 0.10 0.10 87 1015.5
20260510031520 23 350 0.0 3.2 0.00 0.10 0.10 87 1015.5
20260510030019 22 5 0.0 3.2 0.00 0.10 0.10 1015.5
20260510024522 22 124 0.0 4.8 0.00 0.10 0.10 88 1015.4
20260510023027 22 314 0.0 3.2 0.00 0.10 0.10 89 1015.2
20260510021527 22 314 0.0 3.2 0.00 0.10 0.10 88 1015.2
20260510020019 22 49 0.0 3.2 0.00 0.10 0.10 87 1015.0
20260510014537 23 49 0.0 0.0 0.00 0.10 0.10 86 1014.9
20260510013010 23 49 0.0 3.2 0.00 0.10 0.10 85 1014.7
20260510011518 23 49 0.0 3.2 0.00 0.10 0.10 84 1014.5
20260510010010 24 50 0.0 3.2 0.00 0.10 0.10 82 1014.4
20260510004505 25 331 1.6 3.2 0.00 0.10 0.10 81 1014.4
20260510003010 25 333 3.2 4.8 0.00 0.10 0.10 79 1014.1
20260510001518 25 322 0.0 3.2 0.00 0.10 0.10 77 1013.7
20260510000004 26 326 1.6 6.4 0.00 0.10 0.10 75 1013.6
20260509234510 26 352 1.6 8.0 0.00 0.10 0.10 75 1013.5
20260509233013 26 273 3.2 9.7 0.00 0.10 0.10 74 1013.4
20260509231522 27 344 3.2 9.7 0.00 0.10 0.10 72 1013.3
20260509230013 27 350 4.8 12.9 0.00 0.10 0.10 70 1013.0
20260509224511 27 300 6.4 19.3 0.00 0.10 0.10 69 1012.9
20260509223020 28 300 3.2 8.0 0.00 0.10 0.10 68 1012.7
20260509221524 28 296 4.8 11.3 0.00 0.10 0.10 67 1012.5
20260509220008 29 300 3.2 6.4 0.00 0.10 0.10 66 1012.0
20260509214512 30 306 3.2 12.9 0.00 0.10 0.10 65 1011.9
20260509213022 31 310 3.2 12.9 0.00 0.10 0.10 64 1011.8
20260509211524 31 265 3.2 11.3 0.00 0.10 0.10 66 1011.7
20260509210010 30 5 4.8 12.9 0.00 0.10 0.10 67 1011.8
20260509204516 30 271 3.2 9.7 0.00 0.10 0.10 71 1011.7
20260509203026 30 352 1.6 11.3 0.00 0.10 0.10 71 1011.8
20260509201526 28 227 6.4 11.3 0.00 0.10 0.10 73 1011.9
20260509200012 28 195 3.2 6.4 0.00 0.10 0.10 78 1012.0
20260509194531 26 337 0.0 3.2 0.03 0.10 0.10 80 1011.9